• En Colombia
  • Lista de países
  • Para 7 días
  • Temperatura del agua
  • El tiempo en el mapa
  • Informadores
  • user-avatar
    Iniciar sesión

    Tiempo cada hora Herceg Novi

    Hoy, 5 Diciembre, Jueves

    Tiempo Temperatura Precipitaciones Viento Presión Humedad
    00:00 +4°C° 0 mm 2 mps 768 mmHg 47%
    01:00 +5°C° 0 mm 2 mps 768 mmHg 46%
    02:00 +4°C° 0 mm 3 mps 768 mmHg 44%
    03:00 +4°C° 0 mm 3 mps 768 mmHg 42%
    04:00 +4°C° 0 mm 4 mps 767 mmHg 40%
    05:00 +5°C° 0 mm 3 mps 767 mmHg 41%
    06:00 +6°C° 0 mm 2 mps 768 mmHg 43%
    07:00 +7°C° 0 mm 2 mps 768 mmHg 46%
    08:00 +8°C° 0 mm 2 mps 768 mmHg 49%
    09:00 +11°C° 0 mm 1 mps 768 mmHg 52%
    10:00 +13°C° 0 mm 1 mps 768 mmHg 55%
    11:00 +14°C° 0 mm 1 mps 768 mmHg 57%
    12:00 +15°C° 0 mm 1 mps 768 mmHg 59%
    13:00 +15°C° 0 mm 2 mps 767 mmHg 61%
    14:00 +14°C° 0 mm 2 mps 767 mmHg 68%
    15:00 +12°C° 0 mm 2 mps 767 mmHg 74%
    16:00 +10°C° 0 mm 2 mps 767 mmHg 80%
    17:00 +10°C° 0 mm 1 mps 768 mmHg 80%
    18:00 +10°C° 0 mm 1 mps 768 mmHg 80%
    19:00 +10°C° 0 mm 1 mps 768 mmHg 80%
    20:00 +10°C° 0 mm 1 mps 768 mmHg 80%
    21:00 +9°C° 0 mm 2 mps 769 mmHg 81%
    22:00 +9°C° 0 mm 2 mps 769 mmHg 82%
    23:00 +9°C° 0 mm 3 mps 769 mmHg 82%

    Mañana, 6 Diciembre, Viernes

    Tiempo Temperatura Precipitaciones Viento Presión Humedad
    00:00 +9°C° 0 mm 3 mps 769 mmHg 82%
    01:00 +9°C° 0 mm 3 mps 769 mmHg 82%
    02:00 +9°C° 0 mm 3 mps 768 mmHg 81%
    03:00 +9°C° 0 mm 3 mps 768 mmHg 80%
    04:00 +10°C° 0 mm 3 mps 767 mmHg 79%
    05:00 +10°C° 0 mm 3 mps 768 mmHg 80%
    06:00 +10°C° 0 mm 3 mps 768 mmHg 81%
    07:00 +10°C° 0 mm 4 mps 768 mmHg 82%
    08:00 +12°C° 0.1 mm 4 mps 768 mmHg 80%
    09:00 +13°C° 0.1 mm 4 mps 768 mmHg 79%
    10:00 +14°C° 0.1 mm 4 mps 768 mmHg 78%
    11:00 +14°C° 0.3 mm 4 mps 767 mmHg 78%
    12:00 +14°C° 0.3 mm 5 mps 767 mmHg 78%
    13:00 +15°C° 0.3 mm 5 mps 766 mmHg 78%
    14:00 +14°C° 0.7 mm 5 mps 766 mmHg 82%
    15:00 +13°C° 0.7 mm 6 mps 766 mmHg 85%
    16:00 +13°C° 0.7 mm 6 mps 765 mmHg 89%
    17:00 +13°C° 0.5 mm 5 mps 765 mmHg 90%
    18:00 +13°C° 0.5 mm 5 mps 765 mmHg 92%
    19:00 +12°C° 0.5 mm 4 mps 765 mmHg 93%
    20:00 +12°C° 0.5 mm 4 mps 765 mmHg 93%
    21:00 +13°C° 0.5 mm 4 mps 765 mmHg 94%
    22:00 +13°C° 0.5 mm 4 mps 765 mmHg 94%
    23:00 +13°C° 0.7 mm 3 mps 764 mmHg 95%

    Pasado mañana, 7 Diciembre, Sábado

    Tiempo Temperatura Precipitaciones Viento Presión Humedad
    00:00 +13°C° 0.7 mm 3 mps 764 mmHg 95%
    01:00 +14°C° 0.7 mm 2 mps 764 mmHg 95%
    02:00 +13°C° 0.8 mm 3 mps 763 mmHg 95%
    03:00 +13°C° 0.8 mm 3 mps 763 mmHg 95%
    04:00 +13°C° 0.8 mm 3 mps 762 mmHg 95%
    05:00 +13°C° 0.5 mm 3 mps 763 mmHg 93%
    06:00 +13°C° 0.5 mm 3 mps 763 mmHg 91%
    07:00 +14°C° 0.5 mm 2 mps 763 mmHg 89%
    08:00 +15°C° 0.2 mm 2 mps 763 mmHg 85%
    09:00 +16°C° 0.2 mm 2 mps 763 mmHg 81%
    10:00 +17°C° 0.2 mm 2 mps 763 mmHg 77%
    11:00 +17°C° 0.1 mm 2 mps 763 mmHg 75%
    12:00 +17°C° 0.1 mm 2 mps 762 mmHg 73%
    13:00 +18°C° 0.1 mm 2 mps 762 mmHg 72%
    14:00 +16°C° 0 mm 3 mps 762 mmHg 78%
    15:00 +14°C° 0 mm 3 mps 762 mmHg 83%
    16:00 +13°C° 0 mm 3 mps 762 mmHg 89%
    17:00 +13°C° 0 mm 3 mps 762 mmHg 87%
    18:00 +12°C° 0 mm 3 mps 762 mmHg 86%
    19:00 +12°C° 0 mm 3 mps 762 mmHg 84%
    20:00 +12°C° 0 mm 4 mps 763 mmHg 83%
    21:00 +12°C° 0 mm 4 mps 763 mmHg 83%
    22:00 +11°C° 0 mm 4 mps 763 mmHg 82%
    23:00 +11°C° 0.1 mm 4 mps 763 mmHg 82%

    8 Diciembre, Domingo

    Tiempo Temperatura Precipitaciones Viento Presión Humedad
    00:00 +11°C° 0.1 mm 4 mps 763 mmHg 83%
    01:00 +11°C° 0.1 mm 3 mps 763 mmHg 83%
    02:00 +11°C° 0 mm 3 mps 763 mmHg 84%
    03:00 +10°C° 0 mm 3 mps 763 mmHg 84%
    04:00 +10°C° 0 mm 3 mps 762 mmHg 85%
    05:00 +10°C° 0 mm 3 mps 763 mmHg 84%
    06:00 +10°C° 0 mm 3 mps 763 mmHg 82%
    07:00 +10°C° 0 mm 3 mps 763 mmHg 81%
    08:00 +12°C° 0 mm 2 mps 763 mmHg 78%
    09:00 +14°C° 0 mm 2 mps 763 mmHg 74%
    10:00 +15°C° 0 mm 1 mps 763 mmHg 71%
    11:00 +16°C° 0 mm 1 mps 763 mmHg 71%
    12:00 +16°C° 0 mm 1 mps 763 mmHg 72%
    13:00 +16°C° 0 mm 2 mps 762 mmHg 73%
    14:00 +15°C° 0 mm 2 mps 762 mmHg 79%
    15:00 +14°C° 0 mm 2 mps 762 mmHg 85%
    16:00 +13°C° 0 mm 2 mps 762 mmHg 91%
    17:00 +13°C° 0 mm 1 mps 762 mmHg 90%
    18:00 +12°C° 0 mm 1 mps 762 mmHg 89%
    19:00 +12°C° 0 mm 1 mps 762 mmHg 88%
    20:00 +12°C° 0 mm 1 mps 762 mmHg 87%
    21:00 +12°C° 0 mm 1 mps 762 mmHg 86%
    22:00 +12°C° 0 mm 1 mps 762 mmHg 85%
    23:00 +11°C° 0 mm 1 mps 762 mmHg 85%

    9 Diciembre, Lunes

    Tiempo Temperatura Precipitaciones Viento Presión Humedad
    00:00 +10°C° 0 mm 2 mps 762 mmHg 86%
    01:00 +10°C° 0 mm 2 mps 762 mmHg 87%
    02:00 +10°C° 0.1 mm 3 mps 761 mmHg 89%
    03:00 +11°C° 0.1 mm 3 mps 761 mmHg 91%
    04:00 +11°C° 0.1 mm 3 mps 760 mmHg 93%
    05:00 +11°C° 0.3 mm 4 mps 760 mmHg 95%
    06:00 +11°C° 0.3 mm 4 mps 760 mmHg 96%
    07:00 +11°C° 0.3 mm 4 mps 760 mmHg 97%
    08:00 +12°C° 0.4 mm 4 mps 760 mmHg 97%
    09:00 +12°C° 0.4 mm 4 mps 759 mmHg 97%
    10:00 +12°C° 0.4 mm 4 mps 759 mmHg 97%
    11:00 +12°C° 0.2 mm 4 mps 758 mmHg 97%
    12:00 +12°C° 0.2 mm 4 mps 758 mmHg 97%
    13:00 +12°C° 0.2 mm 4 mps 757 mmHg 98%
    14:00 +12°C° 0.1 mm 4 mps 757 mmHg 97%
    15:00 +12°C° 0.1 mm 4 mps 757 mmHg 97%
    16:00 +12°C° 0.1 mm 3 mps 756 mmHg 97%
    17:00 +12°C° 0.1 mm 4 mps 756 mmHg 97%
    18:00 +12°C° 0.1 mm 4 mps 756 mmHg 97%
    19:00 +12°C° 0.1 mm 4 mps 756 mmHg 97%
    20:00 +12°C° 1.5 mm 4 mps 756 mmHg 96%
    21:00 +12°C° 1.5 mm 4 mps 756 mmHg 96%
    22:00 +11°C° 1.5 mm 4 mps 756 mmHg 96%
    23:00 +10°C° 1.3 mm 5 mps 756 mmHg 93%

    10 Diciembre, Martes

    Tiempo Temperatura Precipitaciones Viento Presión Humedad
    00:00 +10°C° 1.3 mm 5 mps 756 mmHg 91%
    01:00 +10°C° 1.3 mm 5 mps 756 mmHg 88%
    02:00 +10°C° 0 mm 6 mps 757 mmHg 87%
    03:00 +9°C° 0 mm 6 mps 757 mmHg 86%
    04:00 +9°C° 0 mm 7 mps 758 mmHg 85%
    05:00 +8°C° 0 mm 6 mps 758 mmHg 82%
    06:00 +8°C° 0 mm 6 mps 759 mmHg 79%
    07:00 +8°C° 0 mm 6 mps 759 mmHg 77%
    08:00 +9°C° 0 mm 6 mps 760 mmHg 72%
    09:00 +10°C° 0 mm 6 mps 761 mmHg 68%
    10:00 +11°C° 0 mm 6 mps 762 mmHg 64%
    11:00 +11°C° 0 mm 6 mps 762 mmHg 62%
    12:00 +12°C° 0 mm 5 mps 762 mmHg 60%
    13:00 +12°C° 0 mm 5 mps 762 mmHg 58%
    14:00 +10°C° 0 mm 5 mps 762 mmHg 60%
    15:00 +9°C° 0 mm 5 mps 763 mmHg 62%
    16:00 +7°C° 0 mm 5 mps 763 mmHg 63%
    17:00 +7°C° 0 mm 5 mps 764 mmHg 66%
    18:00 +6°C° 0 mm 5 mps 764 mmHg 68%
    19:00 +5°C° 0 mm 5 mps 764 mmHg 70%
    20:00 +5°C° 0 mm 4 mps 764 mmHg 69%
    21:00 +5°C° 0 mm 4 mps 765 mmHg 69%
    22:00 +5°C° 0 mm 3 mps 765 mmHg 68%
    23:00 +5°C° 0 mm 3 mps 765 mmHg 64%
    Mostrar más